Location: Recife
(8.0585°S, 34.8848°W)
Time: 12:02:07
(UTC-03:00)

Transit 4A - Pass Details

Date: 16 April 2026
Orbit: 861 x 980 km, 66.8° (Epoch: 12 May)

Event Time Altitude Azimuth Distance (km) Brightness Sun altitude
Rises 11:47:57 0° 194° (SSW) 3,443 10.7 70.3°
Reaches altitude 10° 11:50:27 10° 190° (S) 2,506 10.1 70.1°
Maximum altitude 11:56:09 61° 110° (ESE) 980 8.9 69.5°
Drops below altitude 10° 12:01:55 10° 30° (NNE) 2,538 10.5 68.8°
Sets 12:04:27 0° 27° (NNE) 3,490 11.1 68.5°
